Whidbey Island, WA

4:00 PM PST on January 16, 2018 (GMT -0800)
Whidbey Island Naval Air Station

Weather History for KNUW - March, 2013

Change the Weather History Date:

Tuesday, March 5, 2013

  Actual Average Record
Temperature  
Mean Temperature 44 °F -  
Max Temperature 52 °F 47 °F 62 °F (2016)
Min Temperature 37 °F 35 °F 30 °F (1998)
Degree Days  
Heating Degree Days 20    
Moisture  
Dew Point 33 °F    
Average Humidity 65    
Maximum Humidity 89    
Minimum Humidity 44    
Precipitation  
Precipitation 0.02 in - - ()
Sea Level Pressure  
Sea Level Pressure 29.85 in    
Wind  
Wind Speed 3 mph (ESE)    
Max Wind Speed 9 mph    
Max Gust Speed -    
Visibility 10 miles    
Events Rain    
Averages and records for this station are not official NWS values.
T = Trace of Precipitation, MM = Missing Value Source: NWS Daily Summary

Daily Weather History Graph

Daily Weather History Graph

Search for Another Location

Airport or City:

Trip Planner

Search our weather history database for the weather conditions in past years. The results will help you decide how hot, cold, wet, or windy it might be!

Date:

Astronomy

Mar. 05, 2013 Rise Set
Actual Time 6:43 AM PST 6:01 PM PST
Civil Twilight 6:12 AM PST 6:32 PM PST
Nautical Twilight 5:36 AM PST 7:08 PM PST
Astronomical Twilight 4:59 AM PST 7:45 PM PST
Moon 2:22 AM PST (3/5) 11:24 AM PST (3/5)
Length of Visible Light 12h 20m
Length of Day
11h 18m
Last Quarter, 39% of the Moon is Illuminated
Mar 5
Last Quarter
Mar 11
New
Mar 19
First Quarter
Mar 27
Full
Apr 2
Last Quarter

Hourly Weather History & Observations

Time (PST) Temp. Windchill Dew Point Humidity Pressure Visibility Wind Dir Wind Speed Gust Speed Precip Events Conditions
12:56 AM 37.9 °F - 28.9 °F 70% 29.96 in 10.0 mi Calm Calm - N/A   Mostly Cloudy
1:56 AM 39.0 °F 35.7 °F 28.9 °F 67% 29.95 in 10.0 mi East 4.6 mph - N/A   Overcast
2:56 AM 39.9 °F - 28.0 °F 63% 29.92 in 10.0 mi Calm Calm - N/A   Overcast
3:56 AM 39.9 °F 37.8 °F 28.0 °F 63% 29.90 in 10.0 mi East 3.5 mph - N/A   Overcast
4:56 AM 41.0 °F - 28.0 °F 60% 29.89 in 10.0 mi Calm Calm - N/A   Overcast
5:56 AM 39.9 °F 36.7 °F 28.9 °F 65% 29.87 in 10.0 mi East 4.6 mph - N/A   Overcast
6:56 AM 42.1 °F 39.2 °F 28.9 °F 60% 29.86 in 10.0 mi ESE 4.6 mph - N/A   Overcast
7:56 AM 43.0 °F 41.3 °F 28.9 °F 58% 29.86 in 10.0 mi ENE 3.5 mph - N/A   Overcast
8:56 AM 44.1 °F - 30.9 °F 60% 29.88 in 10.0 mi Calm Calm - N/A   Overcast
9:56 AM 46.9 °F - 30.0 °F 52% 29.88 in 10.0 mi East 5.8 mph - N/A   Overcast
10:56 AM 48.0 °F - 30.0 °F 50% 29.87 in 10.0 mi East 8.1 mph - N/A   Overcast
11:56 AM 51.1 °F - 30.0 °F 44% 29.84 in 10.0 mi SE 9.2 mph - N/A   Overcast
12:56 PM 52.0 °F - 30.9 °F 45% 29.83 in 10.0 mi SE 4.6 mph - N/A   Overcast
1:56 PM 48.0 °F - 37.0 °F 66% 29.82 in 10.0 mi West 9.2 mph - N/A   Overcast
2:56 PM 48.0 °F - 35.1 °F 61% 29.81 in 10.0 mi Calm Calm - N/A   Overcast
3:23 PM 48.2 °F - 33.8 °F 58% 29.79 in 10.0 mi Calm Calm - 0.00 in Rain Light Rain
3:56 PM 48.9 °F - 34.0 °F 56% 29.81 in 10.0 mi ESE 3.5 mph - 0.00 in Rain Light Rain
4:56 PM 46.9 °F - 36.0 °F 66% 29.81 in 10.0 mi South 6.9 mph - 0.00 in Rain Light Rain
5:56 PM 45.0 °F 42.6 °F 36.0 °F 71% 29.81 in 10.0 mi SSE 4.6 mph - 0.00 in Rain Light Rain
6:56 PM 45.0 °F - 36.0 °F 71% 29.82 in 10.0 mi Calm Calm - 0.00 in Rain Light Rain
7:56 PM 43.0 °F 41.3 °F 37.9 °F 82% 29.82 in 10.0 mi NNW 3.5 mph - 0.01 in Rain Light Rain
8:56 PM 42.1 °F 39.2 °F 37.9 °F 85% 29.81 in 10.0 mi North 4.6 mph - 0.01 in Rain Light Rain
9:56 PM 42.1 °F - 37.0 °F 82% 29.81 in 10.0 mi Calm Calm - 0.00 in Rain Light Rain
10:56 PM 39.9 °F - 37.0 °F 89% 29.79 in 10.0 mi Calm Calm - 0.00 in Rain Light Rain
11:56 PM 41.0 °F - 37.0 °F 86% 29.76 in 10.0 mi Calm Calm - 0.00 in   Overcast